FW2285 Weather Reports


Display with metric or nautical units.
time (UTC)temp
F
wind
direction
speed
MPH
gust
MPH
rain 1hr
in
rain 24hr
in
rain mn
in
humidity
%
barometer
mb
20260505194511 51 196 0.0 3.0 0.00 0.33 0.33 55 1013.1
20260505193011 50 242 0.0 2.0 0.00 0.33 0.33 55 1013.2
20260505191512 49 242 0.0 3.0 0.00 0.33 0.33 55 1013.1
20260505190012 49 243 0.0 1.0 0.01 0.33 0.33 55 1013.1
20260505184520 49 55 0.0 1.0 0.01 0.33 0.33 57 1013.2
20260505183022 49 95 0.0 2.0 0.01 0.33 0.33 56 1013.2
20260505181507 48 96 0.0 1.0 0.01 0.33 0.33 56 1013.3
20260505180007 48 96 0.0 3.0 0.00 0.32 0.32 56 1013.3
20260505174510 48 95 0.0 3.0 0.00 0.32 0.32 57 1013.3
20260505173017 48 344 0.0 2.0 0.00 0.32 0.32 57 1013.8
20260505171506 48 311 0.0 4.0 0.00 0.32 0.32 57 1014.0
20260505170008 48 18 0.0 1.0 0.00 0.32 0.32 57 1013.7
20260505164505 48 108 0.0 1.0 0.01 0.32 0.32 57 1013.6
20260505163004 48 96 0.0 1.0 0.02 0.32 0.32 58 1013.5
20260505161502 47 54 0.0 1.0 0.02 0.32 0.32 58 1013.6
20260505153001 47 80 0.0 0.0 0.05 0.30 0.30 60 1013.7
20260505151608 47 80 0.0 0.0 0.06 0.30 0.30 60 1013.1
20260505124545 48 69 0.0 2.0 0.07 0.12 0.12 59 1010.9
20260505123038 49 82 1.0 3.0 0.05 0.10 0.10 56 1010.6
20260505121540 50 84 0.0 3.0 0.02 0.07 0.07 52 1010.9
20260505120041 51 91 0.0 3.0 0.00 0.05 0.05 47 1010.5
20260505114534 51 5 0.0 3.0 0.00 0.05 0.05 46 1010.2
20260505113035 52 15 1.0 4.0 0.00 0.05 0.05 44 1010.2
20260505111532 52 28 1.0 4.0 0.00 0.05 0.05 45 1010.1
20260505101536 51 330 0.0 3.0 0.00 0.05 0.05 48 1010.5
20260505100031 51 23 1.0 3.0 0.00 0.05 0.05 49 1010.2
20260505094530 51 24 1.0 4.0 0.00 0.05 0.05 52 1010.2
20260505093029 50 19 1.0 4.0 0.00 0.05 0.05 54 1009.4
20260505091527 50 32 1.0 8.0 0.00 0.05 0.05 54 1008.8
20260505090027 50 14 1.0 6.0 0.00 0.05 0.05 54 1008.5
20260505084535 51 30 2.0 8.0 0.02 0.05 0.05 55 1008.6
20260505083028 50 355 0.0 5.0 0.05 0.05 0.05 57 1009.0
20260505081526 50 334 1.0 4.0 0.05 0.05 0.05 59 1009.2
20260505080025 50 333 0.0 1.0 0.05 0.05 0.05 58 1009.8
20260505074519 53 333 0.0 3.0 0.03 0.03 0.03 48 1010.4
20260505073023 56 331 0.0 4.0 0.00 0.00 0.00 41 1010.0
20260505071511 58 213 1.0 5.0 0.00 0.00 0.00 32 1008.5
20260505070008 58 32 1.0 6.0 0.00 0.00 0.00 28 1007.8
20260505064506 58 30 2.0 14.0 0.00 0.00 0.00 27 1007.5
20260505063006 59 81 2.0 12.0 0.00 0.00 0.00 26 1007.6
20260505061600 60 60 5.0 15.0 0.00 0.00 0.00 25 1007.0
20260505060056 61 34 3.0 13.0 0.00 0.00 0.00 27 1006.7
20260505054604 63 44 3.0 9.0 0.00 0.00 0.00 27 1006.7
20260505053055 65 57 3.0 10.0 0.00 0.00 0.00 27 1006.1
20260505051543 66 47 3.0 10.0 0.00 0.00 0.00 26 1005.8
20260505041550 69 280 1.0 8.0 0.00 0.00 0.00 29 1004.7
20260505040048 69 273 1.0 5.0 0.00 0.00 0.00 29 1004.6
20260505034535 69 38 1.0 8.0 0.00 0.00 0.00 35 1004.2
20260505033036 67 44 2.0 7.0 0.00 0.00 0.00 47 1004.1
20260505031541 65 307 0.0 0.0 0.00 0.00 0.00 56 1003.2
20260505030033 65 307 0.0 0.0 0.00 0.00 0.00 55 1003.3
20260505024538 66 306 0.0 0.0 0.00 0.00 0.00 54 1003.3
20260505023032 66 307 0.0 0.0 0.00 0.00 0.00 53 1002.8
20260505021534 67 306 0.0 0.0 0.00 0.00 0.00 52 1002.5
20260505020031 68 306 0.0 0.0 0.00 0.00 0.00 50 1002.3
20260505014539 69 307 0.0 0.0 0.00 0.00 0.00 47 1002.2
20260505013030 70 307 0.0 0.0 0.00 0.00 0.00 46 1002.0
20260505011529 72 306 0.0 0.0 0.00 0.00 0.00 44 1001.7
20260505010029 73 306 0.0 0.0 0.00 0.00 0.00 42 1001.7
20260505004533 74 306 0.0 0.0 0.00 0.00 0.00 41 1001.6
20260505003028 76 306 0.0 1.0 0.00 0.00 0.00 39 1001.4
20260505001529 77 306 0.0 2.0 0.00 0.00 0.00 37 1001.5
20260505000035 77 304 0.0 3.0 0.00 0.00 0.00 36 1001.7
20260504234525 77 240 1.0 3.0 0.00 0.00 0.00 36 1001.5
20260504233025 78 290 1.0 5.0 0.00 0.00 0.00 36 1001.5
20260504231524 79 107 1.0 7.0 0.00 0.00 0.00 34 1001.5
20260504230024 80 260 1.0 6.0 0.00 0.00 0.00 34 1001.5
20260504224524 81 139 1.0 9.0 0.00 0.00 0.00 35 1001.6
20260504223033 81 115 1.0 3.0 0.00 0.00 0.00 32 1001.6
20260504221525 81 253 3.0 6.0 0.00 0.00 0.00 28 1001.5
20260504220021 82 113 1.0 5.0 0.00 0.00 0.00 30 1002.2
20260504214524 83 184 1.0 8.0 0.00 0.00 0.00 27 1001.6
20260504213032 83 248 2.0 7.0 0.00 0.00 0.00 25 1001.7
20260504211523 83 240 2.0 9.0 0.00 0.00 0.00 27 1001.7
20260504210019 82 182 2.0 8.0 0.00 0.00 0.00 30 1001.8
20260504204532 82 122 2.0 8.0 0.00 0.00 0.00 31 1002.0
20260504203020 82 119 1.0 6.0 0.00 0.00 0.00 31 1002.2
20260504201513 82 236 2.0 7.0 0.00 0.00 0.00 34 1002.3
20260504200011 82 260 1.0 6.0 0.00 0.00 0.00 34 1002.4